Location: Groß Eilstorf
(52.8200°N, 9.4552°E)
Time: 10:45:40
(UTC+00:00)

Cosmos 2227 Rocket - Pass Details

Date: 15 May 2026
Orbit: 838 x 844 km, 71.0° (Epoch: 8 June)

Event Time Altitude Azimuth Distance (km) Brightness Sun altitude
Exits shadow 22:55:57 20° 131° (SE) 1,852 3.6 -18.0°
Maximum altitude 22:57:51 24° 103° (ESE) 1,685 3.6 -18.0°
Drops below altitude 10° 23:02:16 10° 51° (NE) 2,474 5.1 -18.0°
Sets 23:05:08 0° 38° (NE) 3,414 6.1 -18.1°
